| time (UTC) | temp C | wind direction | speed KPH | gust KPH | rain 1hr cm | rain 24hr cm | rain mn cm | humidity % | barometer mb |
| 20260506231518 | 14 | 269 | 0.0 | 3.2 | 0.20 | 1.19 | 1.19 | 94 | 1003.8 |
| 20260506230022 | 14 | 254 | 0.0 | 3.2 | 0.10 | 1.07 | 1.07 | 94 | 1003.5 |
| 20260506224524 | 14 | 123 | 1.6 | 8.0 | 0.13 | 1.07 | 1.07 | 94 | 1003.7 |
| 20260506223025 | 14 | 223 | 1.6 | 3.2 | 0.10 | 1.04 | 1.04 | 94 | 1003.8 |
| 20260506221512 | 14 | 209 | 0.0 | 4.8 | 0.05 | 0.99 | 0.99 | 94 | 1003.7 |
| 20260506220018 | 14 | 240 | 0.0 | 9.7 | 0.03 | 0.97 | 0.97 | 93 | 1003.6 |
| 20260506214523 | 14 | 130 | 1.6 | 6.4 | 0.03 | 0.94 | 0.94 | 93 | 1003.5 |
| 20260506213027 | 15 | 248 | 3.2 | 11.3 | 0.05 | 0.97 | 0.94 | 93 | 1003.5 |
| 20260506211539 | 15 | 63 | 1.6 | 9.7 | 0.13 | 0.97 | 0.94 | 94 | 1003.5 |
| 20260506210030 | 15 | 161 | 1.6 | 8.0 | 0.15 | 0.97 | 0.94 | 94 | 1003.6 |
| 20260506204523 | 15 | 128 | 1.6 | 6.4 | 0.13 | 0.94 | 0.91 | 94 | 1003.7 |
| 20260506203023 | 15 | 191 | 1.6 | 8.0 | 0.10 | 0.91 | 0.89 | 94 | 1003.9 |
| 20260506201510 | 15 | 350 | 1.6 | 11.3 | 0.03 | 0.84 | 0.81 | 93 | 1003.9 |
| 20260506200014 | 15 | 164 | 3.2 | 6.4 | 0.08 | 0.81 | 0.79 | 93 | 1004.0 |
| 20260506194518 | 15 | 255 | 1.6 | 6.4 | 0.15 | 0.81 | 0.79 | 93 | 1004.1 |
| 20260506193036 | 15 | 169 | 1.6 | 9.7 | 0.25 | 0.81 | 0.79 | 94 | 1004.4 |
| 20260506191526 | 15 | 237 | 0.0 | 3.2 | 0.28 | 0.81 | 0.79 | 94 | 1004.6 |
| 20260506190013 | 15 | 171 | 0.0 | 4.8 | 0.25 | 0.74 | 0.71 | 94 | 1004.8 |
| 20260506184516 | 15 | 229 | 0.0 | 8.0 | 0.23 | 0.66 | 0.64 | 93 | 1004.7 |
| 20260506183022 | 15 | 157 | 3.2 | 6.4 | 0.20 | 0.56 | 0.53 | 93 | 1004.9 |
| 20260506181536 | 15 | 277 | 3.2 | 11.3 | 0.28 | 0.53 | 0.51 | 93 | 1005.1 |
| 20260506180010 | 15 | 210 | 1.6 | 9.7 | 0.33 | 0.48 | 0.46 | 93 | 1005.6 |
| 20260506174515 | 15 | 195 | 0.0 | 9.7 | 0.33 | 0.43 | 0.41 | 93 | 1005.9 |
| 20260506173024 | 15 | 131 | 3.2 | 12.9 | 0.30 | 0.36 | 0.33 | 92 | 1005.8 |
| 20260506171528 | 15 | 205 | 4.8 | 14.5 | 0.23 | 0.25 | 0.23 | 91 | 1005.9 |
| 20260506170026 | 15 | 181 | 0.0 | 4.8 | 0.13 | 0.15 | 0.13 | 91 | 1005.9 |
| 20260506164511 | 15 | 268 | 1.6 | 4.8 | 0.08 | 0.10 | 0.08 | 88 | 1006.1 |
| 20260506163024 | 16 | 202 | 1.6 | 8.0 | 0.03 | 0.05 | 0.03 | 85 | 1006.2 |
| 20260506161521 | 16 | 292 | 1.6 | 8.0 | 0.00 | 0.03 | 0.00 | 85 | 1006.2 |
| 20260506160024 | 16 | 178 | 1.6 | 9.7 | 0.00 | 0.03 | 0.00 | 84 | 1006.5 |
| 20260506154529 | 16 | 236 | 1.6 | 6.4 | 0.00 | 0.03 | 0.00 | 83 | 1006.8 |
| 20260506153021 | 16 | 270 | 3.2 | 12.9 | 0.00 | 0.03 | 0.00 | 83 | 1007.1 |
| 20260506151519 | 16 | 244 | 3.2 | 12.9 | 0.00 | 0.03 | 0.00 | 80 | 1007.3 |
| 20260506150022 | 16 | 187 | 3.2 | 11.3 | 0.00 | 0.03 | 0.00 | 80 | 1007.4 |
| 20260506144526 | 16 | 252 | 1.6 | 11.3 | 0.00 | 0.03 | 0.00 | 80 | 1007.2 |
| 20260506143029 | 16 | 289 | 1.6 | 11.3 | 0.00 | 0.03 | 0.00 | 80 | 1007.0 |
| 20260506141517 | 15 | 254 | 4.8 | 14.5 | 0.00 | 0.03 | 0.00 | 81 | 1007.2 |
| 20260506140023 | 16 | 246 | 3.2 | 16.1 | 0.00 | 0.03 | 0.00 | 80 | 1007.2 |
| 20260506134525 | 15 | 236 | 3.2 | 9.7 | 0.00 | 0.03 | 0.00 | 81 | 1007.2 |
| 20260506133025 | 15 | 223 | 0.0 | 12.9 | 0.00 | 0.03 | 0.00 | 82 | 1007.3 |
| 20260506131528 | 15 | 203 | 0.0 | 9.7 | 0.00 | 0.03 | 0.00 | 83 | 1007.6 |
| 20260506130022 | 15 | 159 | 0.0 | 11.3 | 0.00 | 0.03 | 0.00 | 83 | 1007.9 |
| 20260506124522 | 14 | 259 | 6.4 | 11.3 | 0.00 | 0.03 | 0.00 | 84 | 1007.7 |
| 20260506123026 | 14 | 240 | 4.8 | 14.5 | 0.00 | 0.03 | 0.00 | 84 | 1007.4 |
| 20260506121525 | 14 | 92 | 1.6 | 9.7 | 0.00 | 0.03 | 0.00 | 84 | 1007.2 |
| 20260506120023 | 13 | 360 | 1.6 | 12.9 | 0.00 | 0.03 | 0.00 | 85 | 1007.5 |
| 20260506114524 | 13 | 256 | 1.6 | 6.4 | 0.00 | 0.03 | 0.00 | 86 | 1007.6 |
| 20260506113006 | 13 | 225 | 3.2 | 8.0 | 0.00 | 0.03 | 0.00 | 86 | 1007.6 |
| 20260506111511 | 13 | 205 | 3.2 | 11.3 | 0.00 | 0.03 | 0.00 | 88 | 1007.7 |
| 20260506110015 | 12 | 239 | 1.6 | 6.4 | 0.00 | 0.03 | 0.00 | 91 | 1007.7 |
| 20260506104546 | 11 | 84 | 1.6 | 6.4 | 0.00 | 0.03 | 0.00 | 95 | 1007.6 |
| 20260506103038 | -17 | 0.0 | 0.0 | 0.00 | 0.03 | 0.00 | 1007.6 | ||
| 20260506101532 | -17 | 0.0 | 0.0 | 0.00 | 0.03 | 0.00 | 1007.8 | ||
| 20260506100039 | -17 | 0.0 | 0.0 | 0.00 | 0.03 | 0.00 | 1008.0 | ||
| 20260506094533 | -17 | 0.0 | 0.0 | 0.00 | 0.03 | 0.00 | 1007.6 | ||
| 20260506093032 | -17 | 0.0 | 0.0 | 0.00 | 0.03 | 0.00 | 1007.6 | ||
| 20260506091531 | -17 | 0.0 | 0.0 | 0.00 | 0.03 | 0.00 | 1007.6 | ||
| 20260506090041 | -17 | 0.0 | 0.0 | 0.00 | 0.03 | 0.00 | 1007.5 | ||
| 20260506084531 | -17 | 0.0 | 0.0 | 0.00 | 0.03 | 0.00 | 1007.7 | ||
| 20260506083037 | -17 | 0.0 | 0.0 | 0.00 | 0.03 | 0.00 | 1007.8 | ||
| 20260506081531 | -17 | 0.0 | 0.0 | 0.00 | 0.03 | 0.00 | 1008.1 | ||
| 20260506073030 | 11 | 0.0 | 0.0 | 0.00 | 0.03 | 0.00 | 89 | 1008.2 | |
| 20260506071526 | 11 | 236 | 0.0 | 3.2 | 0.00 | 0.03 | 0.00 | 89 | 1008.1 |
| 20260506061523 | 13 | 217 | 0.0 | 3.2 | 0.00 | 0.03 | 0.00 | 85 | 1007.9 |
| 20260506044533 | 14 | 319 | 0.0 | 3.2 | 0.00 | 0.03 | 0.00 | 88 | 1008.2 |
| 20260506043017 | 14 | 107 | 0.0 | 3.2 | 0.00 | 0.03 | 0.00 | 88 | 1008.1 |
| 20260506041522 | 14 | 269 | 0.0 | 3.2 | 0.00 | 0.03 | 0.00 | 88 | 1007.8 |
| 20260506040040 | 14 | 286 | 0.0 | 3.2 | 0.00 | 0.03 | 0.00 | 88 | 1007.5 |
| 20260506034526 | 14 | 141 | 0.0 | 3.2 | 0.00 | 0.03 | 0.03 | 89 | 1007.9 |
| 20260506033029 | 14 | 340 | 1.6 | 3.2 | 0.00 | 0.03 | 0.03 | 89 | 1007.9 |
| 20260506031518 | 14 | 294 | 0.0 | 3.2 | 0.00 | 0.03 | 0.03 | 90 | 1007.8 |
| 20260506030024 | 14 | 169 | 0.0 | 1.6 | 0.00 | 0.03 | 0.03 | 90 | 1007.9 |
| 20260506024535 | 13 | 344 | 0.0 | 3.2 | 0.00 | 0.03 | 0.03 | 91 | 1007.7 |
| 20260506023028 | 13 | 328 | 0.0 | 3.2 | 0.00 | 0.03 | 0.03 | 92 | 1007.8 |
| 20260506021542 | 13 | 328 | 0.0 | 3.2 | 0.00 | 0.03 | 0.03 | 92 | 1007.8 |
| 20260506020022 | 13 | 313 | 0.0 | 3.2 | 0.00 | 0.03 | 0.03 | 93 | 1007.8 |
| 20260506014525 | 13 | 313 | 0.0 | 0.0 | 0.00 | 0.03 | 0.03 | 91 | 1007.8 |
| 20260506013028 | 13 | 313 | 0.0 | 3.2 | 0.00 | 0.03 | 0.03 | 90 | 1007.4 |
| 20260506011531 | 14 | 308 | 0.0 | 0.0 | 0.00 | 0.03 | 0.03 | 93 | 1007.5 |
| 20260506010039 | 14 | 308 | 0.0 | 0.0 | 0.00 | 0.03 | 0.03 | 93 | 1007.3 |
| 20260506004522 | 14 | 308 | 0.0 | 0.0 | 0.00 | 0.03 | 0.03 | 92 | 1007.4 |
| 20260506003027 | 15 | 308 | 0.0 | 0.0 | 0.00 | 0.03 | 0.03 | 92 | 1007.3 |
| 20260506001528 | 15 | 308 | 0.0 | 0.0 | 0.00 | 0.03 | 0.03 | 92 | 1007.1 |
| 20260506000031 | 15 | 308 | 0.0 | 3.2 | 0.00 | 0.03 | 0.03 | 91 | 1007.1 |
| 20260505234535 | 15 | 279 | 0.0 | 0.0 | 0.00 | 0.03 | 0.03 | 90 | 1007.0 |
| 20260505233022 | 15 | 279 | 0.0 | 0.0 | 0.00 | 0.03 | 0.03 | 90 | 1006.8 |